This demonstration page uses our WeatherBlox Daily Observations layout. Learn more.

Left ArrowRight Arrow

39.51506, -84.39828

Hourly Observations for June 14, 2021

Temp ( °F °C ) Dew Point ( °F °C ) Humidity (%) Winds ( mph kmh ) Pressure ( in mb ) Visibility ( mi km ) Precip ( " mm )
12:15 am 00:15 Clear 68 20.2 62 16.9 81 81 N 3 6 29.92 1013 10 16 N/A
12:35 am 00:35 Clear 66 19 63 17 88 88 ESE 3 6 29.93 1013 7 11 N/A
12:55 am 00:55 Clear 64 17.5 63 17.1 98 98 NNW 5 7 29.93 1014 10 16 N/A
1:15 am 01:15 Clear 63 17.4 63 17.1 98 98 NNW 3 6 29.93 1014 10 16 N/A
1:35 am 01:35 Clear 63 17 63 17 100 100 N 3 6 29.92 1013 10 16 N/A
1:55 am 01:55 Clear 61 16 N/A N/A N N/A 29.92 1013 10 16 N/A
2:15 am 02:15 Clear 62 16.7 62 16.6 99 99 N N/A 29.92 1013 10 16 N/A
2:35 am 02:35 Clear 61 16 61 16 100 100 N N/A 29.92 1013 10 16 N/A
2:55 am 02:55 Clear 61 16 61 16 100 100 N N/A 29.92 1013 10 16 N/A
3:15 am 03:15 Clear 62 16.8 61 16 95 95 SSE 3 6 29.92 1013 10 16 N/A
3:35 am 03:35 Clear 61 16.1 60 15.5 96 96 N N/A 29.91 1013 10 16 N/A
3:55 am 03:55 Clear 61 16 61 16 100 100 SSE 3 6 29.92 1013 10 16 N/A
4:15 am 04:15 Clear 59 15 N/A N/A N N/A 29.92 1013 7 11 N/A
4:35 am 04:35 Clear 61 16 N/A N/A N N/A 29.92 1013 10 16 N/A
4:55 am 04:55 Clear 59 15 N/A N/A N N/A 29.92 1013 10 16 N/A
5:15 am 05:15 Clear 59 15 N/A N/A N N/A 29.92 1013 10 16 N/A
5:35 am 05:35 Clear 57 14 N/A N/A N N/A 29.92 1013 10 16 N/A
5:55 am 05:55 Clear 57 14 N/A N/A N N/A 29.91 1013 10 16 N/A
6:15 am 06:15 Sunny 57 14 N/A N/A N N/A 29.91 1013 10 16 N/A
6:35 am 06:35 Hazy 57 14 N/A N/A N N/A 29.92 1013 5 8 N/A
6:55 am 06:55 Sunny 59 15 N/A N/A S 5 7 29.91 1013 10 16 N/A
7:15 am 07:15 Sunny 63 17 N/A N/A SW 6 9 29.90 1013 10 16 N/A
7:35 am 07:35 Sunny 64 17.7 62 16.7 94 94 SW 5 7 29.91 1013 10 16 N/A
7:55 am 07:55 Sunny 66 18.9 62 16.4 86 86 N N/A 29.91 1013 10 16 N/A
8:15 am 08:15 Sunny 68 20.2 61 16 77 77 WNW 5 7 29.91 1013 10 16 N/A
8:35 am 08:35 Sunny 70 21.3 60 15.6 70 70 W 5 7 29.91 1013 10 16 N/A
8:55 am 08:55 Sunny 72 22.1 61 16.2 69 69 W 5 7 29.91 1013 10 16 N/A
9:35 am 09:35 Sunny 75 23.8 60 15.3 59 59 SW 6 9 29.89 1012 10 16 N/A
9:55 am 09:55 Sunny 76 24.6 60 15.5 57 57 SW 8 13 29.88 1012 10 16 N/A
10:15 am 10:15 Sunny 78 25.3 60 15.7 55 55 SW 9 15 29.88 1012 10 16 N/A
10:35 am 10:35 Sunny 79 26 61 15.9 54 54 WSW 7 11 29.87 1012 10 16 N/A
10:55 am 10:55 Sunny 81 27.4 60 15.6 49 49 WSW 13 20 29.86 1011 10 16 N/A
11:15 am 11:15 Sunny 82 28 60 15.8 47 47 WSW 12 19 29.86 1011 10 16 N/A
11:35 am 11:35 Sunny 83 28.5 60 15.8 46 46 W 10 17 29.85 1011 10 16 N/A
11:55 am 11:55 Partly Cloudy 84 28.8 61 16.2 46 46 W 10 17 29.84 1011 10 16 N/A
12:15 pm 12:15 Partly Cloudy 84 29.1 60 15.8 45 45 W 12 19 29.84 1011 10 16 N/A
12:35 pm 12:35 Sunny 85 29.3 61 16.1 45 45 WNW 14 22 29.84 1011 10 16 N/A
12:55 pm 12:55 Partly Cloudy 86 29.9 61 15.9 43 43 W 16 26 29.83 1010 10 16 N/A
1:15 pm 13:15 Sunny 87 30.3 62 16.4 43 43 W 18 30 29.82 1010 10 16 N/A
1:35 pm 13:35 Sunny 87 30.4 60 15.7 41 41 WNW 17 28 29.82 1010 10 16 N/A
1:55 pm 13:55 Sunny 87 30.7 61 16.2 42 42 WNW 16 26 29.81 1009 10 16 N/A
2:15 pm 14:15 Partly Cloudy 88 31 60 15.3 39 39 WNW 16 26 29.81 1009 10 16 N/A
2:35 pm 14:35 Mostly Cloudy 88 31.1 60 15.5 39 39 NW 16 26 29.80 1009 10 16 N/A
2:55 pm 14:55 Sunny 88 31.1 56 13.6 34 34 WNW 20 31 29.80 1009 10 16 N/A
3:15 pm 15:15 Sunny 87 30.8 56 13.6 35 35 WNW 15 24 29.80 1009 10 16 N/A
3:35 pm 15:35 Sunny 87 30.7 53 11.8 31 31 N 15 24 29.79 1009 10 16 N/A
3:55 pm 15:55 Sunny 87 30.6 54 12.1 32 32 NW 16 26 29.80 1009 10 16 N/A
4:15 pm 16:15 Sunny 87 30.7 58 14.4 37 37 NNW 10 17 29.79 1009 10 16 N/A
4:35 pm 16:35 Sunny 87 30.5 56 13.2 35 35 NNW 14 22 29.79 1009 10 16 N/A
4:55 pm 16:55 Sunny 86 30.1 57 14 37 37 N 14 22 29.79 1009 10 16 N/A
5:15 pm 17:15 Sunny 86 29.9 60 15.6 42 42 N 15 24 29.79 1009 10 16 N/A
5:35 pm 17:35 Partly Cloudy 84 29.1 60 15.8 45 45 N 15 24 29.80 1009 10 16 N/A
5:55 pm 17:55 Sunny 83 28.6 60 15.7 46 46 N 15 24 29.81 1009 10 16 N/A
6:15 pm 18:15 Sunny 83 28.1 60 15.6 47 47 N 13 20 29.81 1009 10 16 N/A
6:35 pm 18:35 Sunny 82 27.8 58 14.5 44 44 N 14 22 29.82 1010 10 16 N/A
6:55 pm 18:55 Hazy 82 27.5 58 14.4 45 45 N 12 19 29.82 1010 5 8 N/A
7:15 pm 19:15 Sunny 81 27 55 13 42 42 N 13 20 29.83 1010 10 16 N/A
7:35 pm 19:35 Sunny 80 26.7 53 11.7 39 39 N 13 20 29.84 1010 10 16 N/A
7:55 pm 19:55 Sunny 79 26.1 53 11.8 41 41 NNW 8 13 29.84 1011 10 16 N/A
8:15 pm 20:15 Sunny 78 25.7 53 11.8 42 42 N 7 11 29.84 1011 10 16 N/A
8:35 pm 20:35 Sunny 76 24.7 53 11.8 45 45 NNW 9 15 29.85 1011 10 16 N/A
8:55 pm 20:55 Sunny 75 23.8 53 11.8 47 47 NNW 7 11 29.87 1011 10 16 N/A
9:15 pm 21:15 Clear 74 23.3 53 11.5 48 48 N 6 9 29.87 1011 10 16 N/A
9:35 pm 21:35 Clear 72 22.3 54 12 52 52 NNW 6 9 29.88 1012 10 16 N/A
9:55 pm 21:55 Clear 72 22.4 54 12.1 52 52 NW 7 11 29.89 1012 10 16 N/A
10:15 pm 22:15 Clear 72 22.2 53 11.8 52 52 NNW 10 17 29.91 1013 10 16 N/A
10:35 pm 22:35 Clear 72 22.4 52 11 49 49 N 10 17 29.91 1013 10 16 N/A
10:55 pm 22:55 Clear 72 22 52 11.1 50 50 NNW 9 15 29.92 1013 10 16 N/A
11:15 pm 23:15 Clear 71 21.8 53 11.6 52 52 N 12 19 29.93 1014 10 16 N/A
11:35 pm 23:35 Clear 70 20.9 55 12.7 60 60 N 9 15 29.94 1014 10 16 N/A
11:55 pm 23:55 Clear 68 19.8 56 13.1 65 65 NNE 8 13 29.95 1014 10 16 N/A

Powered by AerisWeather